{"data":{"norad_id":53203,"intl_designator":"2022-084Q","name":"STARLINK-4409","alt_names":[],"object_type":"PAYLOAD","status":"ACTIVE","operator":null,"country":"US","launch_date":"2022-07-22","launch_site_code":"AFWTR","launch_vehicle":null,"mission":null,"orbit_class":"UNKNOWN","rcs_meters":null,"size_class":null,"mass_kg":null,"dimensions":null,"purposes":["comms"],"wikipedia_slug":null,"has_3d_model":false,"image_url":null,"decayed_at":null,"tle_current":{"epoch":"2026-05-25T03:20:51.181728Z","epoch_age_seconds":62762,"freshness":"FRESH","line1":"1 53203U 22084Q   26145.13948127 -.00000884  00000+0 -57251-4 0  9997","line2":"2 53203  97.4494 206.2115 0001364 134.3276 225.8063 15.05646643210884","mean_motion":15.05646643,"eccentricity":0.0001364,"inclination_deg":97.4494,"raan_deg":206.2115,"arg_perigee_deg":134.3276,"mean_anomaly_deg":225.8063,"bstar":-5.7251e-5,"rev_number":21088,"period_min":95.639970154671,"perigee_km":548.57651871016,"apogee_km":550.46638393568,"semimajor_km":6927.6584513229,"source":"CELESTRAK","updated_at":"2026-05-25T13:38:17.352154Z"}}}